Temp
36 36 36 35 35 35 34 33 33 32 31 30 30 30 30 30 29 29 28 27 27 26 26 26 26 26 26 25 25 25 25 25 25 25 26 26 26 26 26 26 26 25 25 25 25 25 24 24 24 24 24 23 23 24 24 24 24 24 24 24 23 23 23
36 36 36 36 35 35 34 33 32 32 31 31 30 30 30 30 29 29 28 27 27 26 26 26 26 26 26 25 25 25 25 25 25 25 26 26 26 26 26 26 26 25 25 25 25 25 24 24 24 24 24 24 24 24 24 24 24 24 24 23 23 23 23
36 36 36 35 35 35 34 33 32 32 32 31 31 30 30 30 29 29 28 27 27 27 26 26 26 26 26 26 25 25 25 25 25 25 26 26 26 26 26 26 26 26 25 25 25 25 25 24 25 24 24 24 24 24 24 24 24 24 24 23 23 23 23
36 37 36 35 35 35 34 33 32 32 32 32 31 31 30 30 30 29 29 28 27 27 27 26 26 26 26 26 26 25 25 25 25 25 26 26 26 26 26 26 26 26 25 25 25 25 25 25 25 25 24 24 24 24 24 24 24 24 23 23 23 23 23
36 37 36 35 35 34 34 33 32 32 32 32 32 31 31 30 30 30 29 28 28 27 27 27 26 26 26 26 26 25 25 25 25 26 26 26 26 26 26 26 26 26 25 25 25 25 25 25 25 25 24 24 24 24 24 24 24 24 23 23 23 23 23
36 36 36 35 35 34 34 34 33 33 33 33 32 31 31 30 30 30 29 29 28 27 27 27 27 26 26 26 26 25 25 25 25 25 26 26 26 26 26 26 26 26 25 25 25 25 25 25 25 25 24 24 24 24 24 24 24 23 23 23 23 22 22
36 36 36 35 35 35 34 34 34 33 33 33 33 31 31 30 30 30 29 29 28 28 27 27 27 26 26 26 26 26 25 25 25 26 26 26 26 26 26 26 26 26 26 25 25 25 25 25 25 25 25 24 24 24 24 24 24 23 23 23 23 22 22
36 36 36 36 36 35 35 34 34 33 33 33 32 31 31 31 31 30 30 29 28 28 27 27 27 27 26 26 26 26 26 25 25 26 26 26 26 26 26 26 26 26 26 25 25 25 25 25 25 25 25 24 24 24 24 24 23 23 23 23 22 22 22
37 36 36 36 36 36 35 35 34 33 33 33 32 32 31 31 31 31 30 30 29 28 28 28 27 27 27 26 26 26 26 26 26 26 26 26 26 26 26 26 26 26 26 26 25 25 25 25 25 25 25 24 24 24 24 23 23 23 23 23 22 22 22
36 36 36 36 36 36 36 35 34 34 33 33 32 32 31 31 31 31 31 30 29 29 28 28 28 27 27 26 26 26 26 26 26 26 26 26 26 26 26 26 26 26 26 26 26 25 25 25 25 25 25 24 24 24 24 23 23 23 23 23 22 22 22
36 36 36 36 36 36 35 34 34 34 33 32 32 32 31 31 31 31 31 31 30 29 29 28 28 28 27 27 26 26 26 26 26 26 26 26 26 26 26 26 26 26 26 26 26 25 25 25 25 25 24 24 24 24 24 24 23 23 23 22 22 22 22
35 36 35 35 36 35 35 35 34 34 33 31 31 32 31 31 31 31 31 31 31 30 29 29 28 28 27 27 27 26 26 26 26 26 26 26 26 26 26 26 26 26 26 26 26 26 25 25 25 25 24 24 24 24 24 24 23 23 23 22 22 22 22
35 36 35 35 36 35 35 34 33 33 32 31 31 32 31 31 32 31 31 31 31 31 30 29 29 28 28 27 27 27 26 26 26 26 26 26 26 26 26 26 26 26 26 26 26 26 25 25 25 25 25 24 24 24 24 23 23 23 23 22 22 22 22
35 35 35 35 36 35 35 34 33 33 32 31 31 31 31 31 32 32 31 31 31 31 30 30 29 29 28 28 27 27 27 27 27 26 26 26 26 26 26 26 26 27 26 26 26 26 26 26 25 25 25 24 24 24 23 23 23 22 22 22 22 22 22
35 35 35 35 35 34 34 33 33 32 32 31 31 31 31 31 31 32 31 31 32 31 31 30 29 29 29 28 27 27 27 27 27 27 27 27 26 26 26 27 27 27 27 26 26 26 26 26 25 25 25 24 24 24 23 23 23 22 22 22 22 21 22
35 35 35 35 34 34 34 34 33 33 32 32 31 31 31 31 31 32 31 31 32 31 31 31 30 29 29 28 28 28 27 27 27 27 27 27 27 27 27 27 27 27 27 27 26 26 26 26 26 25 25 24 24 23 23 23 23 22 22 22 22 22 22
35 35 35 35 34 34 34 34 33 32 32 32 31 31 31 31 31 32 32 32 32 32 32 31 30 30 29 29 28 28 28 27 27 27 27 27 27 27 27 27 27 27 27 27 26 26 26 26 26 26 25 24 24 24 23 23 23 23 22 22 22 22 21
36 35 35 35 35 35 34 34 34 33 32 32 32 31 32 32 32 32 32 32 32 32 32 31 31 30 30 29 29 28 28 28 27 27 27 27 27 27 27 27 27 27 27 27 27 26 26 26 26 26 25 25 24 24 23 23 23 23 22 22 22 22 21
37 36 35 36 35 35 34 34 34 33 33 32 32 32 32 32 32 32 32 32 32 32 32 32 31 30 30 30 29 29 28 28 28 27 27 27 27 27 27 27 27 27 27 27 27 26 26 26 26 26 26 25 24 24 24 23 23 23 23 22 22 22 21
38 37 36 35 35 35 34 34 34 33 32 33 33 33 33 33 32 32 33 33 33 33 33 33 32 31 30 30 29 29 28 28 28 27 27 27 27 27 27 27 27 27 27 27 27 26 26 26 26 26 25 25 25 24 24 23 23 23 23 22 22 22 21
39 38 37 35 35 35 35 35 34 33 32 32 33 33 33 33 33 33 33 33 33 33 33 33 32 31 31 30 30 29 29 28 28 27 27 27 27 27 27 27 27 27 27 27 27 26 26 26 26 26 25 25 25 24 24 23 23 23 23 22 22 22 21
39 39 38 36 35 35 34 34 34 33 33 33 33 33 33 33 33 33 33 33 33 33 33 33 32 31 31 30 30 29 29 28 28 28 27 27 27 27 27 27 27 27 27 27 26 26 26 26 26 26 25 25 24 24 23 23 23 23 22 22 22 21 20
39 39 39 38 36 34 33 33 33 33 33 33 33 33 33 33 33 33 33 33 33 33 33 33 32 31 31 31 30 29 29 28 28 28 27 27 27 26 26 27 27 26 26 26 26 26 25 25 25 25 25 25 24 24 23 23 23 23 22 22 21 21 20
39 39 39 39 37 34 32 32 33 34 33 33 33 33 34 34 33 33 33 33 33 33 32 32 32 31 31 31 30 30 29 29 28 27 27 26 26 26 26 26 26 26 26 26 25 25 25 25 25 24 24 24 24 24 24 23 23 22 22 22 21 20 19
39 38 37 37 36 34 33 33 33 33 33 33 33 33 34 33 33 33 32 32 33 32 32 32 32 31 31 31 30 30 29 28 28 27 26 26 26 26 26 26 26 26 26 25 25 24 24 24 24 23 23 23 23 23 23 23 22 22 22 21 20 19 19
38 36 36 36 35 34 33 32 32 32 32 32 32 33 34 33 33 32 31 32 32 32 32 32 31 31 31 30 30 29 28 28 27 26 26 26 25 25 25 25 25 25 25 24 24 24 23 23 23 22 22 22 23 22 22 22 22 21 21 20 19 19 19
36 36 36 35 35 34 32 31 32 32 32 32 33 33 33 33 32 31 31 31 32 32 32 32 31 31 30 29 29 28 27 27 26 26 26 25 25 25 25 25 25 24 24 23 23 23 22 22 22 22 22 21 22 22 22 22 21 21 20 20 19 19 19
33 34 34 34 34 33 31 31 32 32 32 33 33 32 33 32 31 31 31 30 31 32 32 31 30 30 29 28 27 27 26 26 26 26 25 25 25 25 24 24 24 24 23 22 22 22 22 21 21 21 21 20 21 21 21 21 21 20 20 19 19 19 19
27 28 30 33 34 34 33 32 32 32 32 32 32 32 33 32 31 30 30 30 31 32 31 30 29 28 27 27 26 26 26 26 26 26 25 25 25 24 24 23 23 23 22 22 21 21 21 20 20 20 19 19 19 20 20 20 20 20 19 19 19 18 18
24 24 25 28 30 31 32 32 31 31 32 33 32 33 32 32 31 29 29 30 31 31 30 29 28 27 26 26 26 25 25 25 25 25 25 24 24 24 23 23 22 22 22 21 21 20 20 19 19 19 18 18 18 19 19 19 19 19 19 19 18 18 18
22 22 23 24 24 24 26 28 26 25 25 28 30 32 33 32 30 29 29 30 30 30 29 28 27 26 26 25 25 25 25 25 25 24 24 24 24 23 22 22 21 21 21 21 20 20 19 19 19 19 18 17 17 18 18 19 19 19 19 19 19 18 18
21 21 22 22 22 21 22 24 23 21 21 22 24 27 30 32 31 29 29 29 29 28 28 27 26 26 25 25 25 25 24 24 24 23 23 23 23 23 22 21 21 20 20 20 20 19 19 18 18 18 18 17 18 18 18 18 18 18 18 18 18 18 18
20 20 20 21 22 21 21 22 22 22 22 22 21 21 24 28 30 30 29 28 28 28 27 26 25 25 24 24 24 24 24 23 23 22 22 22 21 21 21 20 20 20 19 19 19 19 18 18 18 18 18 18 18 18 18 18 18 18 18 18 18 18 18
20 20 20 20 21 21 21 21 21 21 21 21 20 20 20 22 25 27 27 27 27 26 26 25 24 24 23 23 23 23 23 22 22 21 21 21 20 20 20 20 20 20 19 20 20 19 18 18 18 18 18 18 19 18 18 18 17 18 18 19 19 18 18
20 19 19 20 20 21 21 20 20 20 20 20 19 19 19 19 20 21 22 22 23 23 22 22 22 22 22 22 22 22 22 22 21 21 20 20 20 19 19 20 20 20 20 20 20 20 19 19 19 19 19 19 19 19 18 18 18 19 19 19 19 19 19
20 19 20 20 20 21 21 21 20 20 20 19 19 19 19 19 20 20 19 20 20 21 21 21 21 22 22 22 22 22 21 21 20 20 20 20 19 19 19 19 19 20 20 19 20 20 20 20 20 20 20 20 19 19 19 19 19 19 19 19 19 19 19
20 20 20 20 20 21 21 21 21 20 18 19 19 19 19 20 20 20 20 20 21 21 22 22 22 22 22 22 22 22 21 20 19 19 19 19 19 19 18 18 18 19 20 20 20 20 20 20 20 21 21 20 20 20 20 20 20 20 19 19 19 19 19
20 20 20 20 21 21 20 20 21 20 19 19 19 19 19 20 20 20 20 21 22 22 23 22 22 22 22 22 22 21 20 20 19 19 18 18 18 18 18 17 17 17 18 19 20 20 20 21 21 21 21 21 21 21 20 20 20 20 20 20 19 19 19
Height
687 688 689 692 693 696 698 699 701 704 708 712 715 719 723 727 731 736 740 744 748 751 755 758 762 765 768 770 773 775 778 781 783 785 787 789 791 793 795 797 798 799 800 801 803 804 805 807 809 810 813 815 817 819 820 822 823 825 826 827 828 829 830
682 684 685 688 690 692 693 694 696 700 703 707 711 715 718 722 726 731 736 740 743 747 751 755 758 762 764 768 770 773 775 778 780 783 784 786 788 790 792 793 795 796 797 799 800 802 803 805 807 808 811 813 815 817 818 820 821 823 824 825 826 827 828
679 681 682 684 685 686 688 690 692 695 698 702 706 710 714 717 722 726 731 735 740 744 748 751 755 759 762 765 768 770 772 775 777 779 781 782 785 787 789 791 792 793 794 796 797 799 801 803 805 807 809 811 813 814 816 818 819 821 822 823 825 826 826
674 675 676 678 679 680 683 685 688 690 693 697 700 705 709 714 719 723 727 731 735 740 743 747 751 755 759 761 764 767 769 772 774 775 777 779 782 784 786 788 789 790 791 793 795 797 799 802 803 805 807 808 810 812 814 816 817 818 820 821 822 823 825
669 669 672 674 675 677 679 680 683 685 688 692 696 701 705 711 716 720 724 728 731 735 738 743 748 751 755 757 760 764 766 769 771 772 774 776 779 782 783 784 785 786 788 790 792 794 797 799 801 802 804 806 808 809 811 813 814 816 817 818 819 821 822
665 666 668 670 671 673 674 675 677 679 683 687 691 696 701 707 712 716 720 725 728 732 736 740 744 747 751 754 757 761 764 766 767 769 771 773 775 778 779 780 781 783 785 787 789 792 794 796 798 799 801 803 805 806 808 810 811 812 814 815 817 818 819
661 662 663 664 665 667 668 670 672 675 679 682 687 692 697 702 707 711 716 720 724 729 732 736 739 743 747 751 754 758 760 763 764 766 768 770 772 774 776 777 778 780 782 784 786 788 791 793 795 796 798 800 801 803 805 806 807 809 811 812 814 815 817
651 654 656 656 657 660 662 665 667 671 675 679 683 687 691 696 701 705 710 714 719 724 727 731 734 738 743 747 751 754 757 759 761 762 764 767 769 771 772 774 775 777 780 781 783 785 787 789 791 793 795 797 798 800 801 802 804 805 807 809 811 812 814
643 645 647 649 651 654 657 659 662 666 672 676 679 682 686 691 695 699 704 708 714 718 721 726 730 734 739 744 747 750 753 756 757 759 761 763 765 767 768 770 772 774 776 778 780 782 784 786 788 790 792 794 795 796 798 799 800 802 804 805 808 809 811
642 644 645 647 649 650 652 656 660 665 670 672 675 678 682 685 690 695 700 704 708 712 716 721 726 731 736 739 743 747 750 752 753 756 758 759 761 763 764 767 769 771 773 774 777 778 780 783 784 787 789 790 792 793 794 796 797 799 801 802 805 806 808
640 643 645 647 649 650 652 657 661 664 666 668 671 674 677 681 686 691 696 700 704 708 712 717 722 727 731 735 739 743 745 747 749 752 754 755 757 758 761 764 766 767 769 771 773 775 777 779 781 783 785 786 788 789 791 793 794 796 797 799 802 804 806
637 639 643 647 648 651 653 656 660 661 663 666 669 672 675 678 682 687 692 696 700 704 708 713 719 723 727 731 735 738 740 742 745 747 749 751 752 755 757 760 762 764 765 767 769 771 773 775 778 779 781 782 784 786 788 790 792 793 794 797 799 802 804
635 636 640 642 644 649 652 654 657 658 660 663 665 669 672 675 678 683 687 692 697 701 705 709 715 719 723 727 730 733 735 737 739 742 744 746 748 751 753 756 758 759 761 763 765 767 769 771 773 775 777 780 782 784 786 788 790 791 793 794 796 799 802
635 638 639 639 641 646 649 653 654 655 657 659 662 666 669 672 676 679 683 688 692 697 700 705 710 715 719 722 725 727 729 731 734 737 740 742 744 747 750 752 754 756 758 760 762 763 765 768 771 773 776 778 780 782 784 786 788 789 791 793 795 797 799
635 637 639 640 643 645 647 649 650 652 655 656 659 664 666 670 674 676 680 684 687 691 695 700 705 710 714 717 720 722 724 727 730 733 736 739 741 744 746 748 750 753 755 757 758 761 764 767 770 772 774 776 778 780 782 784 786 787 789 791 793 795 796
636 637 639 641 642 643 644 645 646 648 650 653 656 660 663 667 670 672 676 679 683 687 690 695 700 704 709 712 714 717 720 723 727 730 732 735 736 739 741 744 747 750 752 754 756 759 762 765 767 769 770 773 775 777 779 781 782 784 786 788 790 792 793
636 637 639 640 640 641 642 642 643 644 647 649 651 654 658 662 665 668 671 674 678 681 685 690 694 698 702 705 709 713 716 720 723 726 728 730 732 735 738 741 744 747 750 752 754 757 759 762 764 765 766 768 771 773 774 776 778 780 782 785 787 789 790
633 634 635 636 637 638 639 639 640 641 643 644 646 649 653 656 659 664 666 669 672 676 681 685 688 692 696 699 704 708 711 715 718 721 724 726 729 732 735 739 742 744 747 749 751 753 755 758 759 760 763 765 767 769 770 771 773 776 778 781 783 785 787
629 630 630 631 632 633 634 634 634 636 637 638 641 644 646 649 654 658 660 663 667 671 677 680 682 687 690 694 699 702 705 710 713 716 719 722 725 729 732 736 739 741 743 745 747 749 751 754 756 757 760 762 763 765 767 768 770 771 773 776 779 781 783
622 624 625 625 625 626 627 627 628 630 632 635 637 639 641 645 648 651 654 659 663 667 671 674 677 681 684 688 692 695 700 704 707 711 714 717 722 726 729 732 735 737 739 741 743 746 748 751 753 755 757 758 760 761 762 762 764 766 769 772 775 778 780
615 617 620 622 621 621 621 622 625 627 629 632 634 636 640 642 644 647 652 655 659 662 665 668 672 675 679 683 686 690 694 698 702 706 710 714 718 722 725 728 731 733 736 738 741 743 745 748 750 752 753 754 755 755 756 758 760 763 767 770 773 776 779
611 612 614 616 617 617 617 618 621 622 624 627 630 634 636 637 640 644 648 651 654 657 660 663 666 669 673 677 680 684 688 692 697 701 706 710 714 717 720 724 727 730 733 735 738 740 742 745 747 748 750 751 753 754 756 758 761 763 765 767 770 774 776
606 608 608 608 610 611 612 614 616 617 619 622 625 629 631 633 636 639 643 647 650 652 655 658 661 664 667 670 674 678 683 687 692 697 701 705 709 713 716 720 723 727 729 732 735 737 739 741 744 746 749 751 754 756 758 760 762 763 763 765 767 771 773
600 602 604 604 606 606 607 610 612 614 616 618 621 624 626 628 632 634 639 642 645 648 651 653 656 658 661 665 668 673 678 682 687 692 696 700 704 709 712 716 720 724 726 729 732 734 737 740 742 745 748 750 753 755 757 760 761 762 761 762 765 768 770
596 598 600 601 603 605 604 605 608 611 613 614 617 619 622 625 627 629 633 636 639 643 645 647 650 652 655 659 663 668 673 678 682 687 691 696 701 705 709 713 717 721 724 728 730 733 736 739 741 744 746 749 750 752 754 757 759 760 760 761 763 766 769
593 596 597 596 599 601 602 603 605 608 611 611 613 614 616 620 623 625 627 629 634 637 639 641 643 646 650 654 659 665 669 673 678 683 687 693 698 702 707 711 715 720 723 726 729 732 735 737 740 743 745 748 749 750 752 754 756 758 759 760 763 765 768
593 592 592 593 593 596 599 602 603 605 606 606 608 610 611 614 617 619 621 624 628 630 632 635 638 641 646 651 655 661 666 670 675 680 685 691 696 701 706 709 713 717 721 724 727 730 733 736 739 742 745 747 749 750 752 753 755 756 757 759 762 764 767
600 597 594 591 590 591 595 598 598 599 601 601 603 606 608 609 612 613 615 617 621 623 627 631 634 638 642 647 652 658 663 668 673 678 683 689 693 698 704 707 711 715 718 722 726 729 732 735 738 741 744 746 749 751 752 753 754 754 756 758 761 763 766
609 606 601 596 592 590 591 595 595 593 594 597 599 602 604 605 606 608 610 611 614 618 624 628 632 635 639 645 651 656 661 666 671 676 681 686 691 696 701 705 710 714 717 721 725 728 732 735 737 740 742 744 748 750 751 752 753 754 756 758 761 764 766
613 610 607 603 601 596 594 596 597 595 595 595 596 598 599 600 601 603 605 608 611 615 620 625 630 634 639 644 650 655 661 666 670 674 679 684 689 693 698 703 708 713 717 720 723 727 731 733 736 738 740 743 745 747 748 750 752 754 756 758 761 764 766
616 613 609 607 607 606 602 600 602 604 604 604 604 601 596 596 597 599 601 605 609 612 616 622 627 632 638 644 649 655 661 666 671 675 679 683 688 692 697 702 707 711 716 719 722 726 729 732 734 736 738 741 743 744 745 748 751 754 756 758 761 763 766
618 614 612 609 609 611 609 606 605 607 609 614 619 615 604 596 594 596 599 602 607 610 613 619 625 631 638 644 650 656 661 666 672 677 681 685 688 692 697 701 705 710 715 718 722 725 727 730 732 734 737 740 741 741 743 747 750 753 755 757 760 762 765
623 619 617 615 614 614 614 612 611 611 612 617 623 624 619 608 597 594 597 600 604 609 612 618 624 631 638 643 649 655 660 666 672 678 682 687 690 694 699 703 706 710 714 717 720 724 727 730 731 734 736 738 738 740 742 746 749 751 754 756 758 761 764
626 622 620 619 618 617 618 618 616 614 614 616 617 622 629 626 612 602 599 601 605 609 614 619 625 632 639 645 651 656 661 668 674 680 684 689 692 696 701 704 707 710 713 716 719 722 725 728 730 732 734 734 735 738 742 745 747 749 751 754 756 759 762
629 626 622 621 621 622 623 624 623 619 618 619 616 617 628 636 631 618 610 611 613 615 621 628 632 639 649 656 659 662 666 672 678 681 685 689 693 697 702 705 708 711 713 716 719 721 723 726 728 731 732 732 733 737 740 743 745 747 750 753 755 758 760
634 632 627 623 622 625 627 628 627 625 624 625 623 621 627 638 640 630 624 626 628 627 633 640 644 650 658 663 666 668 671 675 680 683 686 689 693 697 701 705 709 712 714 717 720 722 724 726 728 730 731 731 732 735 737 740 743 746 749 752 754 757 759
638 637 632 626 622 626 630 631 630 630 629 630 632 632 632 638 640 636 633 636 639 640 643 647 652 657 662 665 668 671 674 677 681 684 687 690 693 696 700 705 710 714 716 718 720 722 724 726 728 730 731 731 732 734 737 740 742 746 748 751 753 755 757
638 636 636 632 628 629 632 632 633 635 635 635 638 640 639 638 640 639 637 638 642 646 647 649 655 663 666 667 670 673 675 678 682 685 688 692 695 698 702 705 709 714 717 719 720 721 723 725 727 729 730 731 732 734 737 739 742 745 747 749 752 754 756
Wind_Speed
16 15 14 12 13 13 14 17 17 19 25 29 32 35 36 36 36 36 35 38 39 38 39 39 38 38 37 37 38 37 36 35 34 33 32 32 31 30 31 31 31 31 31 31 29 30 32 30 29 29 26 26 25 23 22 21 19 18 16 14 15 18 18
16 15 13 12 12 12 13 15 16 19 25 28 30 34 35 36 36 36 36 38 39 39 39 40 39 38 37 37 37 37 37 36 35 34 33 33 32 31 32 33 33 32 32 31 29 30 32 31 30 30 27 26 26 25 23 23 21 19 18 16 17 19 19
15 14 13 13 13 13 13 13 15 20 24 27 29 33 35 36 37 37 37 37 39 39 39 39 39 38 37 36 36 36 37 36 35 35 34 34 33 32 32 34 34 33 33 33 32 31 32 31 29 29 29 27 27 26 24 24 23 21 20 19 19 20 19
16 15 15 15 15 14 13 13 15 19 24 29 32 34 36 37 37 38 38 38 39 39 39 40 39 38 37 37 37 37 37 36 36 37 36 35 35 33 32 34 34 33 34 34 33 33 32 32 30 29 30 30 28 27 26 25 24 23 23 22 21 21 20
19 17 15 15 15 14 13 14 15 19 25 29 32 34 36 37 38 38 37 38 39 40 40 40 39 38 38 38 37 36 37 37 37 37 37 35 35 34 33 34 35 35 35 34 34 34 33 32 31 30 31 32 30 29 29 27 26 25 26 25 24 23 23
17 17 15 15 15 14 14 16 17 21 27 29 32 34 35 36 37 37 36 36 38 38 39 39 39 38 37 37 37 35 36 37 37 38 38 36 36 36 35 36 37 36 36 35 34 34 34 33 32 31 32 33 32 31 31 30 29 28 29 28 26 25 25
16 16 16 16 15 15 16 16 18 23 28 30 30 32 34 36 37 37 36 36 37 38 38 39 39 39 38 37 36 35 36 37 38 38 38 37 36 36 37 37 37 37 36 36 35 34 34 34 34 33 32 33 33 33 33 33 32 31 31 30 28 26 26
19 18 18 18 17 17 16 15 16 21 26 27 28 31 35 37 37 37 37 37 37 38 38 39 40 40 38 36 36 36 36 37 38 39 38 37 37 37 38 38 38 37 36 36 36 35 35 35 35 35 33 33 34 34 35 34 34 34 33 32 30 29 28
19 19 19 18 18 16 14 14 15 18 22 25 27 30 34 35 36 37 37 37 37 38 39 40 40 39 38 37 37 37 37 37 39 39 38 38 37 38 39 39 38 38 37 37 36 35 36 36 36 36 35 34 34 35 36 37 36 36 35 34 32 31 31
16 16 16 16 16 14 12 12 12 14 16 20 23 28 32 33 34 35 36 37 38 38 40 40 39 38 38 38 37 37 37 38 39 39 39 38 39 39 39 39 39 39 38 37 37 36 37 37 36 37 37 36 36 35 36 37 38 37 36 35 35 34 33
16 17 15 15 14 12 11 11 12 12 12 15 20 25 29 31 33 34 35 36 36 37 39 39 38 37 38 38 37 37 38 39 39 39 39 39 40 40 40 39 38 39 39 38 38 38 37 37 36 37 38 39 39 38 37 37 38 37 36 36 36 35 35
17 17 14 14 12 10 11 12 12 13 11 12 19 23 26 29 32 33 34 35 36 36 37 37 37 37 37 38 38 38 40 40 40 40 41 41 41 40 40 39 38 38 39 39 39 38 38 37 37 37 38 39 39 39 39 38 38 38 37 37 36 36 35
14 15 13 15 14 12 13 14 14 14 12 14 19 23 26 29 31 32 34 35 35 36 36 36 36 36 36 38 39 39 40 41 41 41 42 42 42 41 40 40 39 39 39 39 39 38 37 38 38 38 38 38 38 38 38 37 37 37 37 36 36 36 36
15 15 14 15 15 15 15 14 14 14 13 14 19 23 24 27 31 33 34 35 36 36 36 36 36 36 36 37 39 40 41 43 42 42 42 43 42 41 40 40 40 39 38 38 38 38 37 36 36 36 36 36 36 35 35 35 35 36 36 35 34 35 36
17 17 16 16 15 14 14 13 13 13 13 14 16 20 22 25 29 31 33 35 37 37 37 37 37 37 37 37 39 41 43 43 42 41 41 42 41 41 40 40 40 39 37 37 38 37 35 33 32 33 33 33 33 32 33 33 34 35 35 34 34 35 36
13 14 14 14 13 12 13 14 14 14 14 14 14 18 21 23 27 31 33 35 37 37 37 38 38 38 37 38 40 41 42 42 40 40 40 41 41 42 41 40 39 37 36 36 37 36 33 31 30 31 32 31 31 31 32 33 35 36 36 36 36 36 37
13 14 13 12 12 12 12 13 13 13 13 14 16 20 23 25 29 32 33 34 36 37 38 38 39 39 39 39 40 41 41 40 39 39 40 40 40 40 40 39 37 36 34 33 34 33 32 31 30 30 31 31 31 32 33 34 36 36 36 37 37 37 36
13 15 15 14 14 13 14 14 14 14 14 15 17 22 26 27 29 30 32 34 37 38 38 38 39 40 40 40 40 40 40 39 39 39 39 40 39 38 38 37 35 33 32 31 32 32 32 32 31 30 30 31 32 33 34 35 36 36 37 37 38 38 36
12 13 15 16 16 15 15 13 13 14 15 15 18 25 30 31 30 31 35 37 38 38 37 37 39 41 41 40 41 42 41 40 40 39 39 39 39 37 36 35 33 32 31 30 30 31 32 32 30 28 28 30 31 32 34 35 35 37 37 37 38 39 36
10 10 12 15 16 15 14 13 12 13 15 18 24 29 33 34 34 36 38 37 36 38 38 37 37 39 41 41 41 42 42 41 40 40 39 39 38 35 34 34 32 31 30 28 28 29 30 30 28 26 26 28 29 31 33 35 36 37 36 35 37 39 36
8 8 9 12 14 15 14 14 13 11 13 20 27 29 30 32 34 34 35 35 36 37 39 38 36 38 40 41 41 42 42 41 40 39 38 37 36 35 34 33 32 30 28 27 27 28 28 28 26 24 24 26 28 30 32 33 34 34 33 33 35 37 35
8 7 7 10 12 14 14 14 14 15 19 24 27 27 28 31 33 31 31 34 35 36 38 37 34 36 39 40 40 41 42 41 39 38 36 35 35 34 33 32 31 29 28 27 25 25 25 26 25 25 25 25 26 26 26 26 27 28 29 30 32 34 34
7 7 7 8 11 14 16 19 21 24 26 27 26 27 29 31 32 31 30 32 33 33 35 35 32 34 38 40 40 40 41 41 38 36 35 35 34 33 33 33 32 30 27 26 24 24 23 23 23 24 24 23 22 19 18 18 20 23 25 27 30 34 33
7 7 6 6 8 13 17 22 26 28 28 27 26 29 31 31 31 30 28 29 31 31 31 31 32 34 37 40 40 40 40 40 38 37 36 36 35 34 33 33 32 30 28 26 24 22 22 21 20 20 20 21 21 19 18 17 18 20 22 26 30 34 33
6 5 4 1 2 8 17 24 27 28 27 25 26 30 31 31 31 30 27 28 31 30 28 29 32 36 38 40 40 39 39 39 39 38 38 37 35 35 34 33 31 29 27 24 22 20 19 19 18 18 18 19 20 20 19 19 19 19 21 26 31 33 32
5 8 8 5 4 4 18 25 22 20 21 23 28 33 34 33 31 27 27 29 29 28 28 30 34 37 38 39 38 38 39 39 39 39 38 37 35 34 33 31 29 27 24 22 20 18 17 16 17 17 17 17 18 19 18 18 19 20 22 27 31 33 32
1 5 7 6 6 1 14 22 20 20 24 28 32 34 35 34 30 27 28 28 27 28 31 33 35 36 36 37 37 38 39 39 39 39 37 36 35 33 31 29 28 27 25 22 21 19 18 17 16 16 16 16 16 16 16 16 17 20 24 27 30 32 32
9 7 5 7 10 7 5 17 20 22 26 30 33 33 34 32 27 26 27 25 25 31 34 33 35 37 37 38 38 38 38 38 38 38 36 36 35 33 30 29 28 28 26 24 23 21 20 18 17 17 16 15 14 14 14 14 15 19 24 27 29 31 31
11 12 12 10 10 11 4 7 14 19 24 29 30 31 34 33 27 23 23 25 29 34 33 33 36 38 37 38 37 37 38 38 38 37 36 36 36 34 32 30 29 28 27 26 24 23 22 20 19 18 18 17 15 14 14 14 15 17 22 26 28 29 28
11 12 14 13 14 17 13 5 3 7 15 23 30 34 33 30 27 23 20 23 30 33 34 35 36 36 36 36 36 36 37 37 36 36 37 36 36 35 33 31 30 28 27 26 25 25 23 22 21 21 20 19 18 16 15 16 17 17 20 23 26 26 25
12 12 13 13 16 21 18 12 11 12 11 9 12 28 35 32 26 22 21 26 31 35 38 38 37 36 35 34 35 35 35 34 34 35 36 36 36 35 33 31 30 29 28 27 25 25 24 22 22 23 22 21 20 19 17 17 18 19 19 20 21 22 22
13 15 15 15 16 19 16 11 14 14 15 23 29 21 19 31 31 23 22 30 35 37 39 38 36 35 34 33 34 34 34 33 33 33 33 33 34 34 33 32 32 30 28 26 25 24 24 23 22 22 22 21 20 19 18 17 18 19 19 18 19 19 20
12 14 15 16 17 17 13 9 11 11 9 10 21 33 27 11 26 31 31 35 38 39 41 40 37 35 34 34 34 34 34 34 33 32 32 31 31 31 30 30 31 29 27 25 24 23 22 22 21 21 20 20 20 20 19 18 18 18 18 18 19 20 21
11 12 14 17 19 18 13 8 7 9 8 7 12 22 32 28 7 15 25 31 36 38 37 37 36 34 32 33 34 33 34 34 33 32 31 29 29 29 28 28 28 27 25 24 23 23 22 21 21 21 21 21 21 21 20 19 19 19 19 20 20 21 24
11 12 12 15 19 18 14 9 7 7 9 11 16 23 23 27 25 19 23 25 30 35 33 31 34 34 30 28 29 30 32 31 31 31 31 30 30 28 26 25 25 24 23 22 22 23 23 23 22 22 22 22 23 22 21 21 21 20 19 19 21 23 25
10 10 11 14 18 19 15 10 8 8 12 14 17 22 21 15 17 21 30 32 34 38 36 32 31 31 27 26 27 28 29 29 29 30 32 32 31 29 25 22 21 21 22 21 20 20 20 20 20 20 21 22 23 23 21 20 20 19 17 17 21 23 24
8 8 11 15 16 16 16 12 6 6 11 13 14 15 18 16 15 22 30 31 30 33 34 31 27 24 23 25 26 27 28 28 28 30 30 30 30 30 27 24 21 19 19 19 18 18 17 16 16 18 20 22 22 21 19 16 16 16 15 15 17 21 23
15 15 16 18 16 14 16 15 8 5 8 10 11 12 14 16 17 22 26 28 29 30 31 32 28 22 21 24 26 26 27 27 28 29 28 28 29 29 28 27 24 20 18 17 17 16 16 15 15 17 20 21 20 19 19 17 16 16 16 15 15 17 19
Wind_Direction
188 188 187 187 188 186 184 188 186 183 184 184 185 186 185 186 186 186 187 189 189 190 192 194 195 196 196 196 197 196 197 197 197 198 197 197 198 197 196 194 191 189 190 192 192 193 197 197 195 196 196 195 197 196 195 196 199 201 202 202 197 193 190
187 189 188 184 184 184 182 186 185 182 185 186 184 185 185 186 185 185 187 188 189 190 192 194 195 196 197 197 197 197 197 197 197 197 197 198 200 200 199 196 193 194 196 198 199 198 198 198 196 198 197 195 198 200 198 198 199 199 201 198 191 188 191
188 187 186 184 184 185 182 180 184 185 185 184 184 185 186 187 185 185 186 187 188 190 191 194 195 197 197 197 197 198 197 197 196 197 197 197 199 199 198 196 196 198 200 202 202 198 197 198 198 201 201 197 198 200 199 199 199 200 201 200 196 191 192
186 184 182 185 187 190 185 179 184 186 184 184 185 186 187 187 186 186 187 187 187 188 190 194 195 197 198 198 198 198 197 197 196 197 198 198 198 198 196 195 198 200 201 203 203 200 199 199 200 203 203 200 199 199 200 201 202 203 204 205 204 200 196
182 182 182 186 188 192 192 188 187 186 186 185 185 186 186 186 185 186 188 187 187 189 191 193 195 197 198 199 199 198 198 197 197 198 199 199 198 197 197 198 199 200 202 203 203 202 201 201 203 204 203 202 201 200 202 204 205 206 206 207 207 207 204
181 181 182 187 189 192 196 196 193 189 188 187 184 184 183 183 185 186 187 187 188 190 191 192 195 197 198 199 199 199 198 197 197 198 200 199 198 198 199 201 202 202 202 203 203 203 203 203 204 204 203 203 203 202 203 205 206 206 207 207 208 210 210
182 185 185 187 188 193 196 197 196 192 190 188 183 181 181 183 185 185 186 186 187 188 190 192 195 197 198 199 198 198 198 198 198 199 200 200 199 199 200 202 204 204 203 203 203 203 204 204 203 204 204 204 204 204 205 205 206 205 206 207 208 210 212
180 184 187 188 188 192 194 191 191 191 189 186 180 179 181 183 184 185 185 186 186 188 190 193 195 197 197 198 198 199 199 198 199 200 200 200 200 201 203 204 204 204 204 203 203 204 205 205 205 205 205 205 206 206 206 206 205 205 205 206 207 208 210
183 185 186 187 187 190 190 187 185 183 183 184 181 179 180 182 184 185 185 185 186 188 192 195 196 197 197 197 198 199 199 199 200 200 200 200 201 203 205 206 206 205 204 204 204 205 206 207 207 206 206 207 207 207 206 206 205 204 205 206 206 206 207
182 186 187 187 187 187 184 180 177 175 179 185 183 179 179 181 183 184 184 185 187 189 192 195 196 196 196 197 198 199 199 200 200 200 200 200 202 205 206 207 207 206 206 206 206 206 208 209 209 209 208 208 208 207 206 205 204 205 206 206 206 206 206
176 185 188 187 185 179 172 168 173 179 182 184 183 180 179 180 181 183 185 187 188 190 193 194 195 195 196 197 198 198 199 201 201 200 201 201 204 206 207 207 208 208 207 207 207 208 209 210 210 210 210 210 210 210 208 207 206 205 206 207 207 207 207
174 182 180 176 174 166 164 171 180 183 181 180 182 181 180 179 179 182 185 188 189 191 193 194 194 194 196 196 197 198 199 201 201 201 201 202 205 206 207 207 208 208 208 208 208 210 210 211 211 211 212 212 212 212 211 210 208 207 207 207 206 207 209
172 178 171 168 169 167 171 178 181 180 177 179 181 182 181 180 180 181 183 186 189 191 192 193 194 194 196 196 197 199 200 201 201 202 202 204 206 206 207 208 209 209 210 209 209 210 211 212 213 213 214 214 214 214 213 211 209 208 207 206 206 206 208
168 173 173 173 172 172 176 180 180 177 175 176 179 181 181 181 181 181 182 185 187 190 191 192 193 194 196 197 198 199 201 202 202 202 203 204 206 207 208 209 210 211 211 211 211 212 213 213 213 214 215 216 215 215 214 212 210 209 207 205 205 205 208
167 170 173 174 173 174 175 178 180 179 178 176 178 180 181 182 182 181 182 185 187 189 190 191 191 194 196 197 199 200 202 202 202 202 203 205 206 207 209 210 211 212 212 212 213 214 214 214 214 214 215 216 216 216 215 213 211 210 208 206 204 206 211
161 166 170 174 177 178 178 180 182 182 180 178 179 183 183 183 183 183 183 185 187 189 190 190 190 192 195 197 199 201 202 202 201 201 203 204 206 207 208 210 211 211 212 212 213 214 213 213 214 215 214 213 214 214 214 214 213 213 212 209 207 209 212
161 165 169 175 180 182 184 186 185 182 180 181 183 185 186 186 186 186 185 185 187 189 189 189 190 192 194 197 199 200 201 201 201 201 203 204 206 207 208 209 210 210 211 211 210 210 209 210 212 215 214 212 212 212 213 215 215 215 214 212 211 212 212
164 169 171 174 180 186 189 187 185 183 184 187 187 186 188 189 187 186 186 187 189 189 189 190 191 192 195 197 197 198 200 200 199 200 202 204 205 206 207 207 208 209 209 208 206 205 205 207 210 212 212 211 210 211 213 215 216 216 215 214 214 213 211
168 175 178 179 183 187 188 185 185 188 190 189 189 190 190 189 186 187 190 190 189 188 189 191 192 192 195 196 196 196 198 198 198 199 201 203 204 205 205 205 206 206 206 205 204 202 202 204 207 209 209 208 208 211 214 216 217 217 216 215 215 214 211
193 190 185 186 187 186 185 186 185 187 190 191 193 195 193 189 188 191 192 190 188 187 189 192 193 193 194 195 195 196 196 196 196 197 199 200 201 201 201 202 202 201 200 200 198 197 198 200 202 204 206 207 209 213 216 217 217 216 216 216 216 214 209
208 192 180 185 191 190 188 189 187 181 185 192 196 196 192 190 191 192 190 188 187 187 190 192 192 192 194 195 195 195 195 195 195 195 196 196 196 196 197 196 194 192 192 192 190 190 191 193 194 197 201 205 210 212 214 215 215 214 214 215 215 212 207
198 192 182 182 189 192 190 187 186 186 189 193 194 192 190 190 190 188 188 189 189 189 191 193 192 191 192 195 195 194 193 193 192 192 191 190 189 190 189 186 183 183 185 185 185 187 189 192 196 200 204 205 206 207 208 209 210 210 211 212 212 209 205
192 200 206 196 186 188 192 191 191 192 193 192 191 190 190 190 187 185 186 189 190 191 192 192 192 191 192 194 195 193 192 190 188 187 184 182 181 180 179 177 176 176 178 179 181 186 191 196 201 207 211 210 207 206 205 205 208 209 208 208 209 206 200
201 204 220 228 202 188 189 192 194 196 194 189 189 192 191 188 185 183 185 188 190 192 192 193 194 192 191 193 193 191 189 187 184 180 177 175 174 173 171 172 174 175 177 179 181 186 193 197 201 205 210 210 208 210 214 214 213 211 207 206 205 199 192
204 165 157 174 201 194 194 194 195 196 192 187 189 192 190 188 186 184 184 189 191 192 192 192 194 193 190 191 190 186 183 181 178 174 171 170 170 169 168 170 173 176 180 183 183 182 185 190 194 196 200 203 203 206 211 212 210 208 204 201 197 192 188
182 136 129 105 51 192 197 196 194 190 189 190 192 191 187 186 187 186 186 189 191 194 195 192 191 191 188 184 181 178 175 173 171 169 167 165 165 165 166 168 170 172 174 176 177 173 169 171 176 179 185 194 199 201 205 208 205 200 197 194 191 189 188
277 132 127 99 35 30 190 192 192 191 193 194 193 191 187 184 185 187 188 187 189 195 198 192 185 181 176 172 169 168 167 167 165 163 162 162 161 160 161 163 165 165 165 165 164 159 154 155 160 164 171 181 191 197 202 205 201 193 191 192 192 192 191
347 350 30 54 31 21 179 190 193 194 196 195 192 189 187 184 186 188 185 183 190 197 195 185 175 169 165 162 161 160 159 159 159 158 157 158 157 154 153 155 157 159 160 158 154 150 148 149 153 156 160 167 180 191 194 196 194 188 187 191 195 194 193
6 357 357 9 20 21 29 198 199 194 191 191 190 189 189 187 187 187 185 185 191 190 183 172 165 161 157 156 154 154 153 152 152 153 153 154 154 149 146 148 152 154 155 153 149 147 145 147 151 152 152 157 170 183 185 182 185 187 187 190 194 194 193
12 14 6 360 3 10 13 4 261 216 194 190 190 190 192 191 185 181 184 188 185 175 165 161 158 153 151 151 149 148 148 147 148 149 149 150 149 145 143 146 149 151 153 152 150 147 145 148 151 151 151 155 164 174 178 175 179 185 188 189 193 195 198
8 15 14 11 7 2 4 24 31 16 360 328 241 205 195 190 185 180 179 178 171 161 156 154 151 146 145 145 144 143 143 141 141 143 144 146 147 145 145 147 148 149 152 154 153 150 147 150 154 156 157 158 160 165 171 175 180 185 189 193 196 199 202
14 15 13 16 13 357 353 26 50 47 25 357 336 305 229 192 181 176 170 165 161 156 152 148 143 140 139 138 137 138 136 133 133 136 139 142 146 147 149 151 150 149 150 152 152 151 151 154 158 159 160 161 161 162 167 176 184 187 190 196 201 203 203
17 18 13 16 18 5 356 20 49 60 67 31 358 345 329 250 182 169 162 157 153 151 147 142 137 135 134 132 131 131 130 129 129 132 135 138 140 143 146 149 149 148 148 149 149 151 155 158 160 161 162 161 161 165 171 175 182 188 192 197 202 206 206
17 19 17 17 18 14 11 20 49 63 63 67 59 28 1 347 358 139 145 147 145 141 137 133 130 126 123 123 124 125 126 128 129 130 131 133 135 137 140 145 148 147 149 153 156 157 160 162 165 168 169 164 160 165 171 175 183 193 198 198 200 205 208
19 23 25 22 17 15 17 17 23 54 59 51 67 73 45 8 7 46 79 95 109 110 104 102 107 109 112 117 119 121 124 126 129 131 130 130 132 133 136 142 148 149 151 158 165 165 164 167 170 172 172 168 166 167 170 177 191 203 207 204 203 207 210
24 21 25 32 28 20 16 15 15 39 58 56 63 80 81 43 22 56 77 84 94 99 98 99 105 111 118 123 123 124 125 126 129 132 132 131 131 129 128 134 145 153 154 159 166 169 169 171 173 174 174 172 174 177 179 185 196 204 208 210 210 212 215
23 16 17 29 36 25 10 9 27 63 70 66 65 83 95 85 69 83 94 100 105 110 114 117 118 119 125 128 128 129 128 127 129 131 131 132 132 129 127 127 132 142 148 153 163 171 175 177 177 180 181 179 177 180 184 189 194 197 201 207 211 215 219
21 21 16 16 28 33 15 1 7 87 103 96 94 102 111 113 116 120 123 126 130 132 131 129 128 130 132 131 131 130 128 128 131 131 131 131 132 133 133 129 124 123 129 138 150 160 169 176 179 180 183 185 183 180 180 184 191 196 200 203 204 209 217